GFSSE_500_spd_231.txt.gz
Wind_Speed
11 9 13 13 14 11 8 7 7 7 6 5 4 3 2 2 3 5 6 5 3 5 6 5 5 4 5 8 8 8 8 9 7 9 10 9 8 9 10 10 11 11 11
7 9 8 10 12 10 8 7 6 5 6 5 4 3 3 4 4 4 3 5 1 4 7 5 5 3 7 10 9 8 6 5 7 7 8 9 11 10 9 11 9 10 10
5 8 7 8 9 9 8 8 7 5 5 3 2 2 3 3 4 3 4 5 2 1 4 4 4 4 6 6 5 4 4 3 4 5 5 7 9 11 10 10 8 8 8
4 5 6 8 7 8 8 8 7 4 2 2 1 1 3 5 6 5 5 7 6 3 3 3 4 4 1 3 3 3 2 2 3 5 5 5 9 11 11 8 9 7 7
4 4 5 7 5 3 6 5 5 4 2 3 2 3 4 7 7 7 6 8 8 5 5 5 5 5 4 4 3 2 3 4 7 6 8 6 8 9 11 10 10 6 5
1 5 5 4 6 2 3 4 5 5 4 4 5 3 3 7 9 10 9 8 6 5 6 7 7 5 4 3 4 3 3 5 4 7 10 8 8 9 11 11 11 5 4
1 5 5 3 7 3 3 3 4 4 4 4 4 3 4 7 11 12 8 8 3 4 6 8 7 6 8 7 5 4 2 6 2 6 12 10 9 11 12 12 10 6 4
2 3 5 5 4 6 3 2 2 5 6 4 4 4 4 7 9 8 6 7 4 3 6 8 8 7 8 6 5 6 1 3 8 14 10 11 10 11 12 12 9 7 5
4 2 3 5 5 6 3 2 2 6 7 2 1 1 4 6 8 4 5 6 5 5 6 7 7 7 7 8 5 5 2 4 10 7 8 8 8 9 11 10 9 8 6
4 2 3 4 4 5 4 1 2 5 5 4 4 4 4 6 8 6 8 7 4 6 6 7 6 5 4 5 7 8 2 3 7 7 8 9 8 8 10 9 8 8 7
2 3 2 2 3 6 4 2 2 4 2 4 6 4 7 4 4 5 8 6 4 6 6 7 5 3 4 5 5 5 4 5 6 7 8 9 9 8 8 8 7 6 7
1 3 3 4 5 6 7 3 2 4 1 3 4 3 10 6 3 5 6 6 4 5 6 6 5 3 5 4 3 4 5 6 9 8 7 9 8 8 9 9 8 7 7
3 4 4 5 5 6 8 4 1 2 2 2 3 3 7 6 5 6 2 5 6 4 6 6 4 2 3 4 3 4 6 7 7 8 6 7 7 8 8 8 8 9 7
6 5 5 7 7 5 10 7 1 1 1 3 2 2 5 6 7 7 6 4 5 5 5 5 3 1 2 4 4 4 5 8 8 6 6 6 7 7 7 8 8 7 6
6 6 5 9 8 9 10 10 6 3 2 3 3 2 2 4 6 5 5 5 7 4 5 3 2 2 4 4 4 3 4 6 9 6 5 6 7 8 8 8 8 7 7
8 7 10 10 11 9 9 9 9 4 3 5 3 2 2 2 5 3 7 2 8 6 5 4 1 2 1 3 4 4 3 2 4 4 6 6 7 8 8 7 7 8 8
9 11 13 10 10 11 10 11 9 5 5 3 2 2 4 3 3 4 3 6 8 9 2 6 2 0 2 1 3 4 4 4 4 5 5 5 5 5 7 7 7 7 6
12 12 15 12 10 12 8 10 9 7 8 4 3 4 4 4 2 4 2 3 5 6 8 5 2 0 1 1 1 3 2 3 4 3 4 4 5 4 6 6 6 6 6
15 13 16 13 12 12 11 13 12 10 10 10 5 8 4 6 3 3 1 2 1 1 3 4 2 0 1 3 2 2 3 3 3 5 5 6 5 6 7 7 7 7 8
15 14 14 17 15 14 15 16 14 12 13 12 10 9 8 6 7 6 6 3 1 0 1 2 3 2 1 2 3 3 3 2 3 5 5 6 7 9 8 8 8 9 9
12 11 12 17 18 15 17 16 15 12 13 15 14 13 12 10 10 9 9 6 4 4 1 1 1 3 4 3 2 3 4 4 3 5 6 8 9 8 10 9 8 9 8
8 13 13 17 18 18 18 17 15 15 16 16 15 14 16 12 13 13 12 8 8 6 3 2 1 3 3 4 3 5 6 7 7 6 6 9 9 10 9 10 9 8 8
4 9 16 22 26 25 21 19 19 21 18 17 18 17 17 16 17 18 16 12 11 8 6 3 3 4 4 5 5 9 7 5 9 12 12 8 9 8 9 10 9 8 8
8 15 14 21 26 30 27 24 24 21 15 16 18 17 17 19 17 20 19 15 13 10 7 7 5 5 5 5 5 8 8 10 8 9 13 14 12 10 9 9 7 9 11
13 16 21 18 25 35 33 28 25 20 18 17 16 15 17 18 18 20 19 17 15 13 11 10 6 7 6 7 8 8 9 10 5 13 10 13 11 11 13 9 10 11 12
11 11 23 35 32 40 37 29 24 19 18 19 17 17 17 20 22 21 20 19 17 14 13 10 8 7 9 9 10 8 6 7 7 10 12 7 8 11 10 14 16 16 16

GFSSE_500_spd_234.txt.gz
Wind_Speed
10 11 9 12 12 13 11 10 9 9 9 11 9 7 6 7 6 5 6 4 5 5 4 5 4 5 5 7 8 9 10 10 11 11 11 13 13 14 13 12 11 10 8
7 10 7 9 10 11 10 9 7 7 8 8 6 4 6 8 8 6 6 7 3 4 5 3 3 6 6 7 6 8 9 9 10 11 9 10 12 14 14 13 11 10 9
8 6 8 7 8 10 10 9 9 8 7 7 5 5 7 8 7 5 6 8 5 1 3 2 1 5 6 4 3 3 7 7 8 8 9 10 9 13 15 13 12 9 10
7 6 7 8 8 7 8 9 9 8 8 7 6 6 6 6 7 6 5 6 5 3 3 3 0 3 3 4 2 2 2 3 4 6 7 7 9 12 13 13 13 10 10
5 5 6 6 4 5 6 9 8 8 7 7 5 4 4 8 8 6 5 6 4 3 5 4 2 2 0 1 4 2 3 2 4 4 6 6 8 11 11 11 13 9 9
3 2 5 4 3 2 4 8 9 9 9 7 5 4 4 7 10 10 8 7 4 7 8 7 4 1 1 3 5 3 2 4 6 5 6 6 8 8 10 10 11 9 8
2 1 3 4 2 2 3 6 9 8 8 6 5 4 6 9 9 8 8 7 6 7 10 8 7 4 3 3 5 3 5 4 5 8 9 5 7 8 8 9 9 11 6
3 0 1 3 4 1 2 6 8 8 7 3 4 6 8 9 9 8 8 8 7 8 9 8 9 5 3 4 2 2 4 4 3 6 10 8 7 9 10 8 7 10 7
2 3 1 4 5 3 2 6 7 9 8 2 4 7 8 10 10 9 8 6 8 9 9 7 8 5 6 4 1 2 4 6 10 6 9 9 8 9 10 9 7 7 7
2 5 3 5 4 3 2 5 6 9 6 5 6 9 10 8 10 10 8 7 9 9 9 6 5 7 8 3 4 3 5 5 5 2 5 5 5 8 9 9 6 5 6
3 4 5 5 4 5 3 2 5 6 4 4 3 5 9 7 6 5 8 7 7 9 7 5 5 6 6 3 2 2 5 4 5 4 7 6 5 4 7 6 6 5 4
3 5 6 6 5 6 6 3 2 3 3 3 1 5 12 8 6 5 4 5 6 7 5 6 5 4 4 3 2 2 2 3 6 3 1 4 4 4 4 4 4 5 4
4 3 4 6 5 6 9 5 1 1 2 2 2 3 8 7 7 8 4 4 5 3 4 4 4 3 4 3 4 1 2 2 1 4 2 4 4 3 4 5 5 3 3
5 4 4 7 7 7 11 8 3 0 1 2 1 1 4 6 6 7 5 6 6 3 2 3 3 2 2 5 1 2 1 2 2 1 3 4 5 4 3 4 5 4 4
6 4 4 6 9 9 13 10 5 3 1 2 3 2 2 4 6 6 8 5 7 3 2 2 3 2 1 2 4 3 3 2 3 3 2 3 4 6 6 5 5 4 4
8 6 8 7 12 11 11 12 9 6 3 3 3 2 1 2 4 5 5 5 10 7 2 1 2 2 1 2 3 3 3 5 6 4 3 2 3 5 6 7 6 6 6
13 13 13 10 13 11 10 11 11 8 6 3 3 3 1 1 2 4 5 6 9 11 3 5 3 1 1 1 1 3 3 4 5 5 4 4 4 5 6 6 6 6 6
12 16 16 13 12 14 12 13 13 12 10 6 3 2 1 0 1 3 3 4 4 5 8 3 2 2 1 1 1 2 2 4 4 5 6 4 4 5 5 5 6 6 7
15 15 17 15 13 15 15 16 14 13 12 9 6 4 3 2 3 4 1 4 2 3 4 3 3 2 1 2 2 0 2 4 5 5 6 6 6 5 4 5 7 8 8
13 14 14 18 16 17 15 16 15 14 13 12 8 8 6 5 5 7 4 1 3 1 3 4 2 5 2 1 2 1 1 4 6 6 6 5 5 6 5 6 8 10 10
11 12 15 16 17 17 18 15 14 15 13 15 12 12 11 9 8 8 8 4 4 3 3 4 2 3 4 4 2 3 6 5 5 5 6 6 8 6 6 7 8 10 8
10 14 16 19 16 18 19 18 18 17 16 16 15 15 15 12 12 11 12 9 8 6 5 5 5 2 3 4 4 5 7 7 8 7 8 8 6 8 9 9 9 10 8
14 16 18 21 20 19 22 21 20 18 19 17 15 14 14 15 16 14 15 14 13 11 9 7 6 4 4 4 4 6 5 6 9 10 9 10 9 8 11 11 12 11 11
16 16 19 23 23 24 24 23 23 21 18 15 16 17 17 18 18 21 17 19 17 13 11 9 8 5 6 5 6 9 10 7 8 12 10 10 12 12 13 13 11 11 12
15 19 26 28 31 33 29 25 25 22 19 17 19 20 16 16 15 19 19 21 19 15 13 11 9 8 8 6 8 11 12 10 9 6 11 11 13 10 12 15 12 13 16
13 18 26 20 32 34 33 29 27 24 20 21 21 18 16 15 18 20 20 22 21 18 15 13 12 11 9 9 9 11 10 10 10 8 9 11 9 10 8 8 12 17 19

GFSSE_500_spd_237.txt.gz
Wind_Speed
12 15 12 10 10 9 10 12 13 11 11 11 12 12 12 10 8 8 9 5 3 4 4 3 3 5 6 5 6 10 9 9 10 9 10 9 10 10 9 9 8 7 6
8 12 12 9 9 8 9 10 10 10 10 10 9 10 10 10 8 7 7 6 2 3 6 3 2 5 7 7 7 8 10 10 10 11 10 10 10 11 12 11 9 8 7
7 9 10 10 10 10 11 10 9 9 8 8 8 8 9 10 7 6 6 7 4 1 3 3 1 4 6 4 4 6 8 10 9 11 10 9 10 11 12 12 11 9 8
7 9 8 9 9 8 9 9 9 8 8 7 7 8 9 10 8 6 4 5 1 2 1 1 1 3 4 4 2 6 5 6 7 10 10 9 9 12 11 10 12 10 9
7 7 7 6 7 7 8 9 10 7 7 7 6 6 6 8 8 5 5 4 1 3 4 2 2 2 2 4 6 4 6 5 6 8 9 8 10 11 11 9 10 11 11
5 6 6 4 4 7 7 9 9 8 7 7 7 6 6 8 7 7 4 3 5 7 5 3 3 2 1 0 3 2 3 6 7 7 7 7 9 11 10 11 10 11 10
6 5 5 2 5 6 7 6 7 6 5 6 7 7 8 9 7 7 8 8 7 7 7 6 5 3 5 2 3 5 3 6 5 7 7 5 8 9 10 9 10 10 10
4 7 3 2 6 5 6 5 7 8 4 6 9 8 8 8 9 7 8 9 9 7 8 8 7 4 4 5 3 3 4 2 4 7 8 4 5 7 8 9 8 9 9
3 6 5 4 6 5 5 5 8 9 9 9 10 8 8 10 9 9 8 9 10 9 7 6 8 6 5 6 5 5 5 8 8 5 8 7 5 6 6 8 8 7 7
1 4 7 5 5 4 4 3 6 7 9 9 9 10 8 7 8 10 7 8 10 8 7 5 6 7 4 6 7 7 5 6 3 2 4 5 4 6 6 6 7 5 5
3 1 5 5 5 6 4 2 4 5 6 6 4 10 9 8 7 6 4 7 9 8 8 4 4 5 6 5 6 5 5 6 4 3 5 5 4 3 4 4 4 4 3
3 3 4 5 4 7 6 3 2 4 4 5 6 10 12 10 8 6 5 5 6 8 6 4 3 2 4 5 4 4 3 3 5 3 3 3 3 3 3 2 2 2 2
5 5 4 6 5 6 7 3 2 3 4 5 5 6 9 9 9 9 7 5 4 4 4 5 2 1 1 4 4 3 4 3 1 2 2 2 2 3 3 2 1 1 1
7 5 5 7 7 6 8 5 1 1 2 3 3 3 5 6 6 7 5 6 7 3 3 3 2 1 1 2 2 2 3 2 2 2 0 1 3 3 3 3 3 3 3
7 7 6 6 9 7 10 9 5 2 1 3 3 2 2 3 4 7 6 6 5 2 2 2 2 2 1 1 2 2 1 1 1 1 1 0 2 4 3 3 3 3 5
9 8 9 6 10 9 11 12 9 6 4 4 4 3 2 3 3 4 5 7 8 5 4 5 4 3 2 1 1 2 1 2 2 3 1 1 1 3 4 5 5 6 6
12 13 12 9 10 12 11 13 13 10 7 5 4 4 2 2 1 2 2 4 8 14 4 6 3 2 3 1 1 2 2 3 4 5 5 3 3 3 4 6 7 7 6
15 16 14 12 10 14 14 14 14 13 10 8 5 4 4 2 2 1 1 3 4 5 7 2 1 1 1 1 2 1 1 2 3 5 5 4 4 4 5 5 6 7 7
17 16 15 14 13 14 17 16 15 15 13 11 8 5 3 4 4 2 0 3 3 2 5 5 4 1 2 1 2 1 1 2 2 4 5 5 6 6 7 7 6 7 8
15 14 14 14 14 16 17 19 16 15 15 13 11 9 6 5 5 6 4 3 1 0 3 3 3 3 2 2 3 1 3 3 2 4 5 6 7 7 8 8 9 9 9
16 17 14 16 17 17 19 19 18 19 18 16 15 12 10 9 8 8 7 6 4 3 3 0 1 2 2 2 1 1 3 5 4 3 4 6 7 7 8 9 9 8 8
10 12 14 15 16 17 20 22 20 19 20 17 17 16 14 12 12 11 11 9 9 7 6 4 3 2 5 3 3 2 4 4 6 7 7 7 6 7 8 9 10 10 9
6 13 15 16 18 18 21 23 22 21 23 21 17 15 14 13 14 16 13 12 12 11 9 7 6 5 7 5 6 5 6 7 7 7 10 11 10 10 10 10 10 11 10
8 9 15 17 17 20 23 27 26 24 22 20 17 16 15 15 16 16 16 16 15 15 14 11 10 11 7 7 7 5 6 7 9 10 10 10 13 14 13 13 11 11 12
11 11 15 18 22 24 35 38 31 26 25 22 19 18 17 16 14 18 19 22 19 19 17 17 14 13 9 8 9 9 8 7 9 9 8 13 11 11 11 14 13 16 15
12 15 20 21 23 26 33 39 29 30 31 25 22 18 16 14 13 15 17 20 20 22 22 19 17 15 11 9 11 11 9 8 9 7 9 13 7 13 10 9 7 14 17

GFSSE_500_spd_240.txt.gz
Wind_Speed
13 14 14 11 10 9 11 12 11 13 12 13 12 12 11 10 9 9 8 6 5 7 6 6 3 1 3 5 5 5 6 8 9 7 6 5 5 6 6 6 6 5 4
9 10 12 9 9 9 9 11 10 11 11 11 11 12 10 9 8 7 8 6 4 4 5 4 4 4 2 4 6 5 7 9 9 8 8 8 6 6 7 7 7 6 6
9 7 11 11 11 11 10 10 9 8 8 9 10 11 10 8 7 6 5 7 4 2 2 2 2 5 3 3 5 5 5 8 8 9 9 9 8 7 7 7 7 7 7
10 8 8 10 10 11 9 8 9 8 7 7 8 9 8 7 6 4 4 4 3 2 1 2 2 4 5 4 3 5 6 5 7 9 10 9 9 9 8 6 6 7 7
9 9 7 8 9 9 8 8 7 6 6 6 6 5 6 7 7 5 3 4 3 2 2 3 3 3 4 3 3 4 6 7 4 6 7 8 9 9 8 7 6 7 7
8 8 7 5 7 8 8 7 6 5 5 5 4 6 6 7 7 7 3 5 5 2 2 2 3 3 3 2 2 3 7 7 8 7 5 6 10 10 8 8 8 8 7
7 7 7 6 6 8 6 6 4 3 3 4 4 6 7 7 6 7 7 6 5 4 4 4 6 5 5 5 6 3 6 7 8 9 8 6 8 8 8 9 9 8 6
5 6 5 5 7 7 5 6 5 2 5 5 5 5 7 8 7 7 7 6 6 6 7 6 6 7 8 6 5 3 5 7 7 9 9 7 8 8 8 8 9 8 7
2 4 6 5 9 7 5 5 6 6 9 7 5 6 8 8 7 7 7 6 7 7 6 6 5 8 8 7 6 4 5 8 6 7 9 7 7 8 7 6 7 8 7
2 3 6 7 7 6 4 3 5 6 9 8 7 7 6 6 5 6 5 6 6 7 7 6 6 6 7 8 7 6 6 6 5 5 6 9 5 7 6 6 6 6 5
1 2 4 5 5 7 5 2 4 5 7 5 2 9 5 6 3 3 3 9 6 6 7 5 5 7 5 5 5 7 5 5 4 3 5 6 5 6 6 7 6 5 5
2 2 3 5 4 6 7 4 3 2 4 5 4 8 8 7 6 5 5 8 5 4 5 2 4 6 5 4 4 3 4 3 6 3 4 5 5 6 6 5 5 4 3
2 3 4 5 6 6 8 4 3 3 3 4 3 3 5 7 6 7 7 5 3 2 3 3 4 5 5 3 3 2 4 3 2 3 3 4 4 4 5 5 3 2 2
4 5 5 6 7 7 9 7 4 2 2 4 4 2 2 4 5 6 7 5 3 1 2 2 2 3 5 4 2 2 2 2 2 2 1 3 3 3 4 4 3 3 3
6 5 6 6 8 9 9 10 6 3 2 4 4 1 1 3 4 7 3 6 5 0 3 2 1 2 4 2 1 1 1 2 2 2 1 1 2 3 2 2 3 3 4
11 10 9 8 10 11 9 12 11 6 3 3 3 2 0 2 1 3 5 6 11 0 6 5 2 2 2 3 3 2 2 2 3 1 1 0 1 1 2 3 3 4 5
13 14 11 12 10 11 11 12 12 11 7 4 3 5 3 2 3 1 1 3 7 8 5 3 2 1 1 2 3 4 3 4 4 4 3 3 3 2 2 2 4 5 6
15 15 15 15 12 12 14 13 12 12 11 8 6 5 6 5 3 2 1 1 2 5 4 1 1 1 1 1 1 3 3 4 4 4 4 5 5 4 4 4 4 5 6
14 16 16 17 18 14 15 16 15 14 14 12 10 7 6 6 5 4 1 1 3 4 3 3 2 2 2 3 2 2 2 3 4 4 4 6 7 7 7 6 6 7 7
10 16 17 17 18 17 16 18 18 18 17 16 14 11 9 8 7 6 5 4 2 2 2 2 2 2 2 4 3 1 1 1 2 4 6 6 7 8 8 8 9 10 9
8 15 16 16 18 18 19 19 20 20 19 18 17 15 14 11 9 8 6 7 5 5 5 2 0 1 2 3 3 3 3 3 3 4 5 6 6 7 7 8 8 9 10
9 11 12 16 16 18 20 22 21 21 21 22 20 19 16 14 12 11 9 9 11 8 7 5 3 4 3 2 5 5 5 5 5 6 8 7 6 8 7 7 8 7 9
8 6 10 12 14 16 20 19 22 22 24 24 23 21 18 16 15 13 13 11 12 12 10 9 7 8 6 4 5 7 8 7 6 7 10 9 9 9 9 9 8 8 9
10 9 8 11 15 17 20 22 21 24 26 27 25 22 20 19 18 16 15 16 15 12 14 13 12 11 10 8 8 6 7 9 10 10 10 9 10 10 11 13 11 11 11
13 12 12 14 16 15 21 24 27 27 27 27 25 25 22 20 19 17 18 18 19 17 17 18 15 14 12 11 10 8 8 9 10 11 11 10 10 13 13 8 10 12 13
12 13 14 16 16 19 22 26 31 38 35 29 27 26 24 21 20 19 18 15 14 17 18 20 20 17 15 14 12 9 8 10 10 10 9 11 14 10 12 8 8 7 11

GFSSE_500_spd_246.txt.gz
Wind_Speed
11 10 11 12 10 9 9 8 7 9 8 9 9 9 9 8 9 9 8 8 10 10 9 7 7 10 10 10 8 7 5 5 4 3 3 2 2 1 3 4 3 3 4
8 8 8 10 10 9 9 8 7 8 7 7 7 8 8 8 7 8 8 6 6 7 8 7 5 8 9 10 8 7 6 4 3 3 3 3 2 3 4 4 5 5 6
8 8 8 9 9 9 8 6 6 7 6 5 7 8 9 7 5 5 6 5 4 4 5 6 5 5 6 8 7 5 5 4 5 4 2 3 3 3 3 4 5 4 5
6 7 6 7 7 6 7 7 5 5 4 3 4 7 7 7 5 5 4 4 3 3 2 4 5 4 3 3 4 4 2 6 7 3 2 3 3 3 4 4 3 4 4
3 5 6 6 6 6 5 4 3 4 3 3 4 5 5 7 6 4 3 3 3 4 3 3 4 4 3 1 2 4 2 5 1 8 7 4 4 3 2 2 3 4 6
3 2 3 4 4 6 5 4 4 4 4 3 3 4 5 6 6 4 3 3 4 5 5 5 4 5 4 3 4 3 3 3 5 1 8 2 3 3 1 1 3 3 5
5 4 3 2 2 2 3 3 4 3 3 3 3 5 5 3 4 4 3 4 5 7 6 5 6 5 5 4 4 3 4 4 4 3 2 2 5 3 1 1 1 2 3
4 5 5 4 2 1 2 4 5 3 3 2 4 4 3 2 2 3 3 3 4 6 8 5 4 5 6 4 4 3 4 6 4 6 5 3 5 4 2 2 0 1 2
2 3 5 5 4 2 1 4 5 2 2 4 2 1 2 1 1 3 1 5 3 5 8 5 4 4 4 4 4 3 3 5 6 4 5 5 2 3 3 3 2 0 1
2 3 5 5 6 3 1 3 5 1 1 5 3 2 4 3 5 6 2 2 1 1 5 6 1 2 4 5 5 6 9 4 1 2 6 10 3 2 2 3 2 1 0
3 2 4 4 3 4 2 2 4 3 3 3 7 6 6 7 8 17 6 5 1 1 3 4 3 1 3 4 4 5 3 5 2 1 1 3 3 1 4 4 2 2 0
4 2 2 5 4 4 4 1 2 3 4 5 11 3 3 7 12 5 8 6 3 2 2 3 1 1 2 2 3 3 3 5 5 4 3 4 5 4 5 5 3 2 1
7 4 5 5 6 5 6 4 3 2 3 3 4 1 6 9 21 10 6 4 3 3 3 2 2 2 1 1 3 5 2 3 3 3 2 2 3 4 6 6 5 3 2
8 9 7 6 6 6 5 7 4 3 3 4 4 4 6 8 6 3 2 3 3 2 1 3 2 2 2 2 1 1 2 2 2 1 3 3 4 5 5 4 4 3 2
9 11 11 9 7 6 7 7 6 6 5 5 5 4 5 5 3 1 2 6 3 5 5 4 2 2 2 3 2 2 2 2 1 2 1 2 3 4 5 4 3 3 1
9 12 10 11 10 7 7 7 10 11 4 8 6 6 2 5 7 6 3 2 3 1 3 1 3 1 0 2 1 0 2 1 3 2 1 1 2 3 3 4 4 3 3
11 10 11 13 12 10 8 9 10 14 11 7 7 9 4 5 5 6 9 5 4 1 1 2 3 3 2 1 1 1 1 4 1 3 3 2 2 2 3 3 3 3 3
10 11 10 12 12 11 12 10 12 13 14 11 9 8 6 7 7 6 6 6 3 3 3 4 2 3 5 3 2 3 1 2 3 2 5 3 3 4 4 3 3 3 4
11 13 12 10 11 13 14 12 14 14 12 12 12 12 8 6 7 7 7 6 6 5 5 5 3 4 2 3 2 2 3 3 2 3 4 5 4 4 5 4 3 4 4
12 15 13 11 10 11 13 14 15 15 14 13 13 13 13 13 10 6 6 7 5 5 4 5 3 4 6 2 2 3 2 1 3 4 4 5 4 4 5 5 5 4 4
16 24 8 11 11 9 11 12 14 16 15 16 17 14 15 17 13 8 7 10 8 6 5 6 5 4 6 4 5 5 2 2 2 2 4 4 4 4 4 6 5 6 5
11 11 10 8 8 6 9 12 13 17 17 18 18 17 16 15 15 11 11 11 8 9 7 8 8 9 4 4 6 7 7 7 8 6 5 6 7 5 4 6 7 6 6
7 11 10 9 6 8 10 13 15 17 21 21 22 20 19 17 20 19 16 13 12 10 8 10 10 9 8 7 6 7 6 6 7 8 7 3 3 4 8 4 8 11 5
12 9 8 9 8 10 14 13 16 18 21 25 24 24 22 23 14 18 23 17 13 17 13 14 12 11 11 10 9 9 8 7 8 13 10 8 7 4 9 12 9 8 8
13 13 12 12 10 13 18 21 16 16 25 29 27 27 23 25 26 24 21 20 14 19 18 16 13 13 14 13 12 10 10 8 8 11 12 8 7 8 10 8 6 5 8
11 12 12 12 13 15 17 19 20 20 24 26 31 31 25 27 28 25 21 17 20 20 19 18 17 16 16 17 15 13 11 10 9 10 11 10 9 9 10 6 7 6 6